{"data":{"norad_id":58830,"epoch":"2026-05-24T15:47:08.647872Z","epoch_age_seconds":111459,"freshness":"FRESH","line1":"1 58830U 24017E   26144.65773898 -.00004297  00000+0 -12668-3 0  9997","line2":"2 58830  53.1596 211.0058 0001363  84.9982 275.1175 15.31728319131693","mean_motion":15.31728319,"eccentricity":0.0001363,"inclination_deg":53.1596,"raan_deg":211.0058,"arg_perigee_deg":84.9982,"mean_anomaly_deg":275.1175,"bstar":-0.00012668,"rev_number":13169,"period_min":94.011449820299,"perigee_km":469.72208863234,"apogee_km":471.58906948939,"semimajor_km":6848.7925790609,"source":"CELESTRAK","updated_at":"2026-05-25T13:38:18.753570Z"}}